Tracking 23645 objects as of 21-Sep-2021
HD Live streaming from Space Station
objects crossing your sky now

STARLINK-1439

Track STARLINK-1439 now!
10-day predictions
STARLINK-1439 is classified as:


NORAD ID: 45716
Int'l Code: 2020-035BM
Perigee: 401.7 km
Apogee: 408.5 km
Inclination: 53.0 °
Period: 92.5 minutes
Semi major axis: 6776 km
RCS: Unknown
Launch date: June 4, 2020
Source: United States (US)
Launch site: AIR FORCE EASTERN TEST RANGE (AFETR)
aabbcc
Your satellite tracking list
Your tracking list is empty




NASA's NSSDC Master Catalog

Two Line Element Set (TLE):
1 45716U 20035BM  21264.61786902  .00057160  00000-0  79450-3 0  9994
2 45716  52.9990  24.3312 0005017 264.7632  95.2806 15.56451013 75279
Source of the keplerian elements: AFSPC